Lid_Strength_Index
10 13 15 13 12 13 14 15 16 14 14 15 15 14 12 11 13 14 13 12 12 11 10 9 9 8 9 9 9 9 9 9 9 10 10 9 10 8 6 4 3 2 1 0
13 15 12 12 12 13 14 16 16 14 14 15 15 14 13 13 13 14 13 12 13 12 11 10 10 9 9 9 9 9 9 9 9 10 9 9 9 7 6 4 3 2 1 1
14 12 12 12 14 14 14 15 16 16 14 14 15 15 16 14 13 12 13 12 12 12 12 11 10 10 9 10 10 10 9 10 10 9 8 9 8 7 6 4 3 2 2 1
13 12 13 14 14 14 16 14 15 15 16 18 16 19 15 15 14 13 13 13 13 12 12 11 10 10 10 10 10 10 10 10 10 9 9 10 9 10 7 7 5 4 2 2
15 14 15 14 14 13 15 14 15 15 17 18 17 20 16 16 16 14 14 13 13 12 11 11 11 10 10 10 11 11 10 10 10 9 8 10 9 8 7 6 5 3 3 3
14 12 13 14 13 13 13 14 15 16 17 21 18 19 17 17 15 15 14 13 12 12 12 11 11 11 11 10 11 11 11 11 10 9 9 9 10 9 8 6 5 4 3 3
16 15 14 13 15 14 15 17 19 20 21 20 18 20 17 15 14 14 14 14 13 12 12 12 12 12 11 11 11 11 11 11 10 9 9 9 9 9 8 7 6 5 4 4
17 19 16 14 15 15 16 16 18 22 22 19 20 20 15 14 14 13 13 13 12 12 12 12 12 12 11 11 11 12 12 11 9 9 9 9 9 9 7 8 7 6 6 5
16 17 15 14 14 15 17 19 16 19 23 20 17 16 15 15 15 14 14 13 13 13 12 12 12 12 12 11 12 12 12 10 9 10 10 10 9 9 7 7 7 7 6 5
14 19 17 16 14 15 16 15 20 19 23 22 18 17 17 16 15 14 14 14 13 12 13 12 12 12 12 12 12 13 12 10 10 10 10 10 10 8 7 7 7 7 7 6
14 14 19 17 18 18 19 19 18 17 18 20 22 17 13 13 14 14 13 12 12 13 13 12 12 12 12 12 13 13 11 10 10 10 9 10 10 8 7 7 8 7 7 7
12 15 20 18 17 15 17 17 16 18 19 20 19 18 13 14 15 12 12 12 13 13 13 12 13 13 13 13 13 13 11 10 10 10 9 10 10 8 7 9 8 8 8 8
13 17 22 19 18 17 18 17 16 16 16 21 20 18 13 14 14 13 13 13 13 13 12 12 13 14 14 13 14 13 11 11 11 10 10 11 11 9 8 8 9 9 9 8
12 16 18 18 16 17 20 18 17 17 20 18 18 16 13 16 15 13 13 13 12 13 11 12 14 14 14 14 14 13 11 11 11 10 10 11 11 10 9 9 9 9 9 8
13 19 19 19 18 17 17 18 17 18 16 17 16 16 13 12 13 14 12 11 12 13 15 14 15 15 14 14 15 13 11 11 11 10 10 11 11 11 10 10 10 10 9 9
14 19 18 20 19 18 19 17 18 18 19 19 18 17 11 10 10 15 13 13 12 12 14 14 14 15 15 16 15 13 13 12 11 10 11 11 10 11 12 11 10 10 11 10
15 17 19 20 19 19 20 19 18 18 17 16 18 13 12 13 11 12 11 11 11 10 10 12 13 14 15 16 15 13 12 12 12 11 12 11 11 12 12 11 11 11 11 11
15 15 16 19 19 21 17 15 15 16 16 14 14 13 11 12 11 11 10 10 10 10 10 11 12 13 15 15 16 14 12 12 12 11 11 11 11 12 13 13 12 12 11 11
13 14 15 17 19 17 15 16 16 17 15 13 14 12 12 12 13 12 10 10 10 10 11 12 12 13 14 15 15 13 14 13 13 12 12 12 12 12 12 13 13 12 11 11
14 12 15 16 19 21 15 13 13 13 18 12 12 12 12 12 14 11 13 12 12 12 12 12 13 13 14 15 14 14 14 14 14 12 13 13 13 12 12 12 13 13 13 13
17 17 17 16 17 18 13 13 12 17 15 11 11 11 12 13 11 13 13 13 13 13 12 12 13 14 14 15 14 15 14 14 14 14 13 13 13 13 12 13 12 13 13 12
15 16 17 16 18 20 13 14 15 11 11 11 10 10 11 12 13 13 13 14 14 14 13 13 14 15 15 16 15 15 14 15 15 15 15 14 14 14 14 14 14 13 13 13
15 13 14 14 16 11 12 12 10 11 10 11 11 10 10 12 13 13 14 14 14 14 14 14 15 16 18 18 16 16 17 16 16 16 17 18 17 16 15 15 15 15 14 13
13 12 14 13 13 12 12 11 10 10 10 11 10 10 10 12 13 14 14 14 14 15 15 16 16 17 18 18 18 18 17 16 16 16 17 18 17 17 17 15 15 15 16 17
11 12 15 13 13 13 12 11 10 10 11 11 11 10 10 12 12 13 14 15 15 15 17 16 16 17 17 18 18 18 18 16 17 17 19 19 18 18 17 17 16 16 17 14
10 12 13 14 11 10 10 9 10 10 11 11 12 13 12 13 13 14 14 15 15 16 17 17 17 17 18 18 18 18 17 16 16 17 18 18 19 19 19 17 18 15 15 14